Location: Clatteringshaws Loch
(55.0508°N, 4.2860°W)
Time: 00:35:04
(UTC+01:00)

Amateur Radio Satellites - All Passes

Search period start: 23 August 2014 00:05
Search period end: 24 August 2014 00:05
Location: Clatteringshaws Loch, 55.0508°N, 4.2860°W

Satellite Date Start Highest point End Downlink Frequencies (MHz)
Time Altitude Azimuth
KITSAT 1 23 Aug 00:09:34 00:12:38 13° 96° (E) 00:15:43 435.175 FM
Sapphire 23 Aug 00:11:10 00:15:29 23° 359° (N) 00:19:48 437.095 MHz 1200 baud AX-25 AFSK
FUNcube-1 23 Aug 00:11:34 00:13:56 15° 274° (W) 00:16:19 145.950 - 145.970 MHz USB
MaSat-1 23 Aug 00:42:02 00:47:08 78° 237° (WSW) 00:51:43 437.345 MHz
PCSat 23 Aug 00:42:12 00:46:35 24° 7° (N) 00:50:57 145.825 MHz
Oscar 19 23 Aug 01:14:48 01:15:29 10° 80° (E) 01:16:09 437.125 CW, 437.150 USB
JAS-1B 23 Aug 01:34:34 01:35:49 10° 68° (ENE) 01:37:01 435.800 - 435.900 CW/SSB
Oscar 16 23 Aug 01:45:43 01:49:25 19° 87° (E) 01:53:05 437.025 USB, Beacon 2401.1428
Saudisat 1A 23 Aug 01:52:18 01:56:23 38° 125° (SE) 02:00:30 436.775 MHz
AO-27 23 Aug 01:53:19 01:54:04 10° 80° (E) 01:54:48 436.795 MHz FM
Sapphire 23 Aug 01:55:37 02:00:29 32° 24° (NNE) 02:05:20 437.095 MHz 1200 baud AX-25 AFSK
KITSAT 1 23 Aug 01:58:26 02:06:05 49° 118° (ESE) 02:13:46 435.175 FM
OPAL 23 Aug 02:00:25 02:02:32 13° 39° (NE) 02:04:39 ?
MaSat-1 23 Aug 02:20:29 02:23:22 16° 259° (W) 02:26:06 437.345 MHz
PCSat 23 Aug 02:26:12 02:31:22 41° 32° (NNE) 02:36:30 145.825 MHz
AO-Echo 23 Aug 02:50:12 02:54:22 29° 93° (E) 02:58:26 ?
Oscar 19 23 Aug 02:50:54 02:56:02 55° 101° (E) 03:01:08 437.125 CW, 437.150 USB
ITAMSAT 1 23 Aug 03:03:10 03:07:55 35° 96° (E) 03:12:38 435.822 SSB
Gurwin Techsat 1B 23 Aug 03:07:54 03:11:56 21° 88° (E) 03:15:56 435.225 FM
Uribyol 2 23 Aug 03:15:22 03:20:22 45° 99° (E) 03:25:19 436.500 FM
JAS-1B 23 Aug 03:21:29 03:29:05 47° 94° (E) 03:35:25 435.800 - 435.900 CW/SSB
Oscar 16 23 Aug 03:24:13 03:29:28 85° 288° (WNW) 03:34:41 437.025 USB, Beacon 2401.1428
Oscar 10/S400 23 Aug 03:27:45 04:24:55 32° 219° (SW) 08:32:29 145.825 - 145.975 CW/USB, Beacon 145.810 USB
AO-27 23 Aug 03:29:40 03:34:47 55° 101° (E) 03:39:52 436.795 MHz FM
AO-7 23 Aug 03:30:19 03:31:50 11° 74° (ENE) 03:33:20 29.400 - 29.500 MHz
Saudisat 1A 23 Aug 03:31:35 03:35:55 53° 326° (NW) 03:40:17 436.775 MHz
OPAL 23 Aug 03:35:30 03:40:16 44° 60° (ENE) 03:45:08 ?
Sapphire 23 Aug 03:39:09 03:44:38 84° 48° (NE) 03:50:04 437.095 MHz 1200 baud AX-25 AFSK
KITSAT 1 23 Aug 03:53:18 04:01:22 67° 323° (NW) 04:09:28 435.175 FM
TMSAT-1 23 Aug 04:04:48 04:09:50 42° 97° (E) 04:14:51 436.925 FM
PCSat 23 Aug 04:09:43 04:15:06 64° 235° (SW) 04:20:27 145.825 MHz
AO-Echo 23 Aug 04:28:47 04:33:25 49° 294° (WNW) 04:37:56 ?
Oscar 19 23 Aug 04:30:37 04:35:12 32° 301° (WNW) 04:39:47 437.125 CW, 437.150 USB
ITAMSAT 1 23 Aug 04:42:38 04:47:36 47° 296° (WNW) 04:52:32 435.822 SSB
Gurwin Techsat 1B 23 Aug 04:47:12 04:52:32 79° 289° (WNW) 04:57:51 435.225 FM
Uribyol 2 23 Aug 04:55:03 04:59:49 38° 299° (WNW) 05:04:34 436.500 FM
Oscar 16 23 Aug 05:04:26 05:08:11 21° 309° (NW) 05:11:56 437.025 USB, Beacon 2401.1428
STRAND 1 23 Aug 05:06:43 05:10:04 18° 49° (NE) 05:13:24 ?
AO-27 23 Aug 05:09:34 05:14:07 32° 302° (WNW) 05:18:39 436.795 MHz FM
Uosat F 23 Aug 05:11:06 05:15:42 35° 96° (E) 05:20:16 435.120 FM
JAS-1B 23 Aug 05:12:07 05:19:53 52° 301° (WNW) 05:26:22 435.800 - 435.900 CW/SSB
Saudisat 1A 23 Aug 05:12:37 05:16:21 26° 349° (N) 05:20:05 436.775 MHz
OPAL 23 Aug 05:14:35 05:19:16 38° 261° (W) 05:24:03 ?
AO-7 23 Aug 05:19:13 05:27:07 45° 98° (E) 05:34:57 29.400 - 29.500 MHz
Sapphire 23 Aug 05:23:13 05:27:31 24° 249° (WSW) 05:31:47 437.095 MHz 1200 baud AX-25 AFSK
TMSAT-1 23 Aug 05:44:51 05:49:48 41° 298° (WNW) 05:54:44 436.925 FM
SO-50 23 Aug 05:49:53 05:52:15 14° 112° (ESE) 05:54:38 436.795 FM
KITSAT 1 23 Aug 05:50:38 05:58:11 40° 350° (N) 06:05:43 435.175 FM
PCSat 23 Aug 05:54:45 05:57:32 14° 256° (WSW) 06:00:18 145.825 MHz
AO-Echo 23 Aug 06:09:30 06:11:10 12° 316° (NW) 06:12:49 ?
ITAMSAT 1 23 Aug 06:23:50 06:26:00 13° 317° (NW) 06:28:09 435.822 SSB
Gurwin Techsat 1B 23 Aug 06:28:06 06:31:48 20° 310° (NW) 06:35:29 435.225 FM
JAS-2 23 Aug 06:30:41 06:34:49 23° 90° (E) 06:38:57 435.800 - 435.900 CW/SSB, 435.910 FM
Uribyol 2 23 Aug 06:37:10 06:38:00 10° 321° (NW) 06:38:51 436.500 FM
STRAND 1 23 Aug 06:43:25 06:48:31 74° 70° (ENE) 06:53:38 ?
Uosat F 23 Aug 06:49:52 06:54:39 45° 296° (WNW) 06:59:23 435.120 FM
Saudisat 1A 23 Aug 06:53:19 06:57:07 27° 14° (NNE) 07:00:55 436.775 MHz
JAS-1B 23 Aug 07:03:13 07:08:37 20° 327° (NNW) 07:13:30 435.800 - 435.900 CW/SSB
AO-7 23 Aug 07:12:08 07:20:17 62° 301° (WNW) 07:28:23 29.400 - 29.500 MHz
Hamsat 23 Aug 07:13:50 07:18:10 56° 100° (E) 07:22:28 145.90 MHz
TMSAT-1 23 Aug 07:26:52 07:28:28 11° 320° (NW) 07:30:05 436.925 FM
SO-50 23 Aug 07:27:30 07:31:59 68° 132° (SE) 07:36:37 436.795 FM
RS-15 23 Aug 07:46:37 07:51:20 14° 92° (E) 07:56:02 29.354 - 29.394 USB, Beacon 29.352 USB
SO-67 23 Aug 07:46:55 07:49:38 21° 92° (E) 07:52:21 435.3500 MHz FM
KITSAT 1 23 Aug 07:47:47 07:55:30 44° 19° (NNE) 08:03:10 435.175 FM
JAS-2 23 Aug 08:15:20 08:20:32 66° 291° (WNW) 08:25:42 435.800 - 435.900 CW/SSB, 435.910 FM
STRAND 1 23 Aug 08:24:22 08:28:17 22° 270° (W) 08:32:12 ?
Uosat F 23 Aug 08:30:34 08:32:20 12° 318° (NW) 08:34:05 435.120 FM
Saudisat 1A 23 Aug 08:33:03 08:37:28 61° 37° (NE) 08:41:51 436.775 MHz
UOSAT-12 23 Aug 08:35:29 08:39:44 36° 123° (ESE) 08:44:03 437.025 FM, 437.400 FM
HO-68 23 Aug 08:45:36 08:49:45 16° 81° (E) 08:53:52 435.675 MHz FM
Hamsat 23 Aug 08:50:18 08:53:52 25° 300° (WNW) 08:57:25 145.90 MHz
JAS-1B 23 Aug 08:53:42 08:56:03 11° 354° (N) 08:58:18 435.800 - 435.900 CW/SSB
AO-7 23 Aug 09:05:24 09:11:42 25° 326° (NW) 09:17:59 29.400 - 29.500 MHz
SO-50 23 Aug 09:08:36 09:12:53 38° 335° (NNW) 09:17:17 436.795 FM
SO-67 23 Aug 09:19:35 09:22:52 40° 291° (WNW) 09:26:09 435.3500 MHz FM
KITSAT 1 23 Aug 09:43:44 09:51:54 85° 45° (NE) 10:00:00 435.175 FM
RS-15 23 Aug 09:50:20 10:00:44 51° 117° (ESE) 10:11:02 29.354 - 29.394 USB, Beacon 29.352 USB
UKube-1 23 Aug 09:57:51 10:01:14 22° 92° (E) 10:04:36 145.840 MHz, 145.915 MHz
JAS-2 23 Aug 10:01:45 10:04:46 16° 314° (NW) 10:07:45 435.800 - 435.900 CW/SSB, 435.910 FM
Saudisat 1A 23 Aug 10:12:56 10:16:51 31° 238° (WSW) 10:20:44 436.775 MHz
Oscar 11 23 Aug 10:13:02 10:16:24 21° 90° (E) 10:19:44 145.825 FM, Beacon 2401.500 USB
UOSAT-12 23 Aug 10:15:07 10:19:45 59° 325° (NW) 10:24:28 437.025 FM, 437.400 FM
FUNcube-1 23 Aug 10:16:40 10:17:51 11° 83° (E) 10:19:03 145.950 - 145.970 MHz USB
HO-68 23 Aug 10:31:51 10:38:58 63° 104° (ESE) 10:46:04 435.675 MHz FM
JAS-1B 23 Aug 10:38:54 10:43:10 14° 21° (NNE) 10:47:12 435.800 - 435.900 CW/SSB
SO-50 23 Aug 10:50:39 10:54:33 26° 359° (N) 10:58:31 436.795 FM
AO-7 23 Aug 10:57:40 11:01:46 15° 353° (N) 11:05:51 29.400 - 29.500 MHz
Oscar 16 23 Aug 11:33:30 11:36:05 14° 45° (NE) 11:38:40 437.025 USB, Beacon 2401.1428
UKube-1 23 Aug 11:33:32 11:37:49 59° 291° (WNW) 11:42:06 145.840 MHz, 145.915 MHz
KITSAT 1 23 Aug 11:39:37 11:46:37 34° 249° (WSW) 11:53:36 435.175 FM
Oscar 11 23 Aug 11:48:38 11:52:59 61° 290° (WNW) 11:57:18 145.825 FM, Beacon 2401.500 USB
FUNcube-1 23 Aug 11:50:42 11:55:05 68° 103° (ESE) 11:59:34 145.950 - 145.970 MHz USB
UOSAT-12 23 Aug 11:56:39 12:00:45 28° 348° (NNW) 12:04:53 437.025 FM, 437.400 FM
RS-15 23 Aug 12:01:43 12:12:43 74° 325° (NW) 12:23:45 29.354 - 29.394 USB, Beacon 29.352 USB
HO-68 23 Aug 12:19:55 12:26:28 41° 306° (NW) 12:33:00 435.675 MHz FM
JAS-1B 23 Aug 12:23:15 12:31:08 31° 46° (NE) 12:38:21 435.800 - 435.900 CW/SSB
SO-50 23 Aug 12:31:54 12:36:15 36° 23° (NNE) 12:40:41 436.795 FM
AO-Echo 23 Aug 12:33:25 12:36:47 18° 52° (NE) 12:40:05 ?
Oscar 19 23 Aug 12:36:41 12:41:13 32° 59° (ENE) 12:45:47 437.125 CW, 437.150 USB
AO-7 23 Aug 12:46:29 12:51:29 18° 20° (NNE) 12:56:28 29.400 - 29.500 MHz
ITAMSAT 1 23 Aug 12:50:33 12:54:35 24° 53° (NE) 12:58:37 435.822 SSB
Gurwin Techsat 1B 23 Aug 12:58:53 13:02:03 16° 47° (NE) 13:05:13 435.225 FM
Uribyol 2 23 Aug 13:02:16 13:06:38 29° 57° (ENE) 13:11:01 436.500 FM
Oscar 16 23 Aug 13:09:25 13:14:25 54° 66° (ENE) 13:19:29 437.025 USB, Beacon 2401.1428
UKube-1 23 Aug 13:11:24 13:13:13 12° 312° (NW) 13:15:02 145.840 MHz, 145.915 MHz
AO-27 23 Aug 13:16:29 13:21:07 34° 59° (ENE) 13:25:46 436.795 MHz FM
Oscar 11 23 Aug 13:26:27 13:28:22 13° 310° (NW) 13:30:16 145.825 FM, Beacon 2401.500 USB
FUNcube-1 23 Aug 13:27:47 13:31:09 22° 302° (WNW) 13:34:33 145.950 - 145.970 MHz USB
UOSAT-12 23 Aug 13:38:00 13:42:08 29° 12° (NNE) 13:46:16 437.025 FM, 437.400 FM
TMSAT-1 23 Aug 13:54:17 13:58:40 27° 56° (NE) 14:03:05 436.925 FM
HO-68 23 Aug 14:08:33 14:12:27 16° 330° (NNW) 14:16:21 435.675 MHz FM
AO-Echo 23 Aug 14:09:48 14:14:55 79° 72° (ENE) 14:19:54 ?
JAS-1B 23 Aug 14:10:46 14:20:36 76° 68° (ENE) 14:29:29 435.800 - 435.900 CW/SSB
SO-50 23 Aug 14:12:30 14:17:15 80° 225° (SW) 14:22:05 436.795 FM
Oscar 19 23 Aug 14:15:19 14:20:22 55° 259° (W) 14:25:29 437.125 CW, 437.150 USB
RS-15 23 Aug 14:16:09 14:26:47 52° 357° (N) 14:37:34 29.354 - 29.394 USB, Beacon 29.352 USB
ITAMSAT 1 23 Aug 14:28:24 14:33:36 81° 254° (WSW) 14:38:49 435.822 SSB
AO-7 23 Aug 14:34:43 14:42:06 37° 46° (NE) 14:49:29 29.400 - 29.500 MHz
Gurwin Techsat 1B 23 Aug 14:35:53 14:41:07 63° 68° (ENE) 14:46:23 435.225 FM
MaSat-1 23 Aug 14:40:17 14:42:32 13° 99° (E) 14:44:49 437.345 MHz
Uribyol 2 23 Aug 14:40:42 14:45:49 63° 257° (WSW) 14:50:59 436.500 FM
Oscar 16 23 Aug 14:49:32 14:54:04 31° 267° (W) 14:58:39 437.025 USB, Beacon 2401.1428
Uosat F 23 Aug 14:54:24 14:58:12 22° 53° (NE) 15:01:59 435.120 FM
AO-27 23 Aug 14:55:28 15:00:31 51° 260° (W) 15:05:35 436.795 MHz FM
ISS 23 Aug 15:03:58 15:06:26 19° 151° (SSE) 15:08:55 145.800 FM
UOSAT-12 23 Aug 15:18:23 15:23:07 60° 36° (NE) 15:27:47 437.025 FM, 437.400 FM
TMSAT-1 23 Aug 15:32:58 15:38:14 69° 257° (WSW) 15:43:33 436.925 FM
AO-Echo 23 Aug 15:50:34 15:54:16 20° 271° (W) 15:57:55 ?
SO-50 23 Aug 15:53:58 15:57:13 18° 245° (WSW) 16:00:29 436.795 FM
Oscar 19 23 Aug 16:00:18 16:00:56 10° 280° (W) 16:01:34 437.125 CW, 437.150 USB
JAS-1B 23 Aug 16:02:38 16:11:40 40° 268° (W) 16:20:03 435.800 - 435.900 CW/SSB
ITAMSAT 1 23 Aug 16:10:52 16:13:58 16° 275° (W) 16:17:04 435.822 SSB
MaSat-1 23 Aug 16:13:44 16:18:37 62° 120° (ESE) 16:23:47 437.345 MHz
Gurwin Techsat 1B 23 Aug 16:17:02 16:21:31 27° 268° (W) 16:26:01 435.225 FM
Uribyol 2 23 Aug 16:24:27 16:26:23 12° 278° (W) 16:28:20 436.500 FM
AO-7 23 Aug 16:25:55 16:34:18 82° 249° (WSW) 16:42:42 29.400 - 29.500 MHz
RS-15 23 Aug 16:30:10 16:41:07 66° 29° (NNE) 16:52:20 29.354 - 29.394 USB, Beacon 29.352 USB
Uosat F 23 Aug 16:31:26 16:36:28 83° 254° (WSW) 16:41:32 435.120 FM
ISS 23 Aug 16:39:29 16:42:40 42° 170° (S) 16:45:50 145.800 FM
Hamsat 23 Aug 16:39:56 16:42:50 18° 55° (NE) 16:45:44 145.90 MHz
JAS-2 23 Aug 16:50:23 16:55:34 29° 57° (ENE) 17:00:19 435.800 - 435.900 CW/SSB, 435.910 FM
UOSAT-12 23 Aug 16:58:48 17:03:08 35° 237° (WSW) 17:07:24 437.025 FM, 437.400 FM
TMSAT-1 23 Aug 17:16:38 17:19:12 14° 277° (W) 17:21:47 436.925 FM
OPAL 23 Aug 17:16:44 17:21:25 32° 97° (E) 17:26:04 ?
HO-68 23 Aug 17:39:13 17:42:04 13° 23° (NNE) 17:44:55 435.675 MHz FM
MaSat-1 23 Aug 17:51:20 17:56:04 38° 322° (NW) 18:00:56 437.345 MHz
JAS-1B 23 Aug 18:03:41 18:04:52 10° 292° (WNW) 18:06:02 435.800 - 435.900 CW/SSB
Uosat F 23 Aug 18:13:02 18:16:04 16° 274° (W) 18:19:07 435.120 FM
Hamsat 23 Aug 18:13:57 18:18:15 85° 255° (WSW) 18:22:39 145.90 MHz
ISS 23 Aug 18:15:55 18:19:05 41° 190° (S) 18:22:16 145.800 FM
AO-7 23 Aug 18:21:52 18:28:23 25° 272° (W) 18:34:57 29.400 - 29.500 MHz
SO-67 23 Aug 18:26:54 18:29:43 24° 63° (ENE) 18:32:34 435.3500 MHz FM
Sapphire 23 Aug 18:30:27 18:33:35 16° 106° (ESE) 18:36:45 437.095 MHz 1200 baud AX-25 AFSK
JAS-2 23 Aug 18:34:02 18:40:24 70° 256° (WSW) 18:46:04 435.800 - 435.900 CW/SSB, 435.910 FM
RS-15 23 Aug 18:42:54 18:53:39 63° 237° (WSW) 19:04:45 29.354 - 29.394 USB, Beacon 29.352 USB
STRAND 1 23 Aug 18:48:00 18:50:52 15° 85° (E) 18:53:42 ?
OPAL 23 Aug 18:55:29 19:00:32 53° 297° (WNW) 19:05:36 ?
PCSat 23 Aug 18:59:08 19:03:34 27° 112° (ESE) 19:08:02 145.825 MHz
HO-68 23 Aug 19:21:41 19:27:41 31° 48° (NE) 19:33:42 435.675 MHz FM
UKube-1 23 Aug 19:28:14 19:28:51 10° 45° (NE) 19:29:27 145.840 MHz, 145.915 MHz
MaSat-1 23 Aug 19:30:58 19:34:34 19° 345° (NNW) 19:38:10 437.345 MHz
Hamsat 23 Aug 19:52:48 19:54:57 14° 275° (W) 19:57:07 145.90 MHz
ISS 23 Aug 19:52:52 19:55:18 19° 210° (SSW) 19:57:45 145.800 FM
SO-67 23 Aug 19:59:23 20:02:39 37° 263° (W) 20:05:56 435.3500 MHz FM
Sapphire 23 Aug 20:10:44 20:16:07 70° 126° (SE) 20:21:32 437.095 MHz 1200 baud AX-25 AFSK
JAS-2 23 Aug 20:23:00 20:26:27 15° 276° (W) 20:29:44 435.800 - 435.900 CW/SSB, 435.910 FM
STRAND 1 23 Aug 20:25:49 20:30:57 77° 105° (ESE) 20:36:03 ?
OPAL 23 Aug 20:35:38 20:38:27 15° 318° (NW) 20:41:16 ?
PCSat 23 Aug 20:41:06 20:46:32 78° 314° (NW) 20:52:00 145.825 MHz
RS-15 23 Aug 20:56:33 21:03:42 20° 262° (W) 21:11:02 29.354 - 29.394 USB, Beacon 29.352 USB
UKube-1 23 Aug 20:59:55 21:04:05 47° 66° (ENE) 21:08:16 145.840 MHz, 145.915 MHz
HO-68 23 Aug 21:07:35 21:14:45 88° 250° (WSW) 21:21:58 435.675 MHz FM
MaSat-1 23 Aug 21:10:12 21:13:34 17° 9° (N) 21:16:49 437.345 MHz
Oscar 11 23 Aug 21:14:43 21:18:45 39° 65° (ENE) 21:22:50 145.825 FM, Beacon 2401.500 USB
FUNcube-1 23 Aug 21:19:17 21:22:26 21° 58° (ENE) 21:25:39 145.950 - 145.970 MHz USB
Sapphire 23 Aug 21:54:52 21:59:56 39° 329° (NNW) 22:05:03 437.095 MHz 1200 baud AX-25 AFSK
STRAND 1 23 Aug 22:05:41 22:09:41 24° 306° (NW) 22:13:41 ?
PCSat 23 Aug 22:25:57 22:30:44 31° 337° (NNW) 22:35:33 145.825 MHz
UKube-1 23 Aug 22:36:46 22:40:30 27° 266° (W) 22:44:16 145.840 MHz, 145.915 MHz
MaSat-1 23 Aug 22:47:43 22:52:15 30° 33° (NNE) 22:56:28 437.345 MHz
Oscar 11 23 Aug 22:51:09 22:55:03 32° 265° (W) 22:58:59 145.825 FM, Beacon 2401.500 USB
FUNcube-1 23 Aug 22:54:22 22:58:30 63° 258° (WSW) 23:02:43 145.950 - 145.970 MHz USB
HO-68 23 Aug 22:57:55 23:03:28 24° 272° (W) 23:09:04 435.675 MHz FM
Sapphire 23 Aug 23:40:26 23:44:47 24° 354° (N) 23:49:08 437.095 MHz 1200 baud AX-25 AFSK
